Location: Casilda
(33.0440°S, 61.1680°W)
Time: 17:50:01
(UTC-03:00)

ISS - Pass Details

Date: 20 January 2022
Orbit: 413 x 422 km, 51.6° (Epoch: 19 January)

Event Time Altitude Azimuth Distance (km) Brightness Sun altitude
Exits shadow 05:36:40 - 343° (NNW) 1,953 -0.8 -8.2°
Reaches altitude 10° 05:37:52 10° 350° (N) 1,509 -1.3 -8.0°
Maximum altitude 05:40:48 27° 50° (NE) 849 -2.0 -7.4°
Drops below altitude 10° 05:43:46 10° 110° (ESE) 1,527 0.8 -6.9°
Sets 05:46:05 0° 122° (ESE) 2,400 2.8 -6.5°
